Flag for Germany Weather past 2 weeks in Ludwigsfelde, Brandenburg, Germany

Now
45 °F

Fog.


Feels Like: 42 °F
Forecast: 39 / 54 °F
Wind: 5 mph from Southeast

Location: Potsdam

Current Time: Oct 24, 2014 at 6:33:15 PM

Latest Report: Oct 24, 2014 at 6:00 PM


Visibility: 4 mi

Pressure: 30.22 "Hg

Humidity: 93%

Dew point: 43 °F

Location of LudwigsfeldeLocation

Historic Weather in Ludwigsfelde — Graph

°F

Ludwigsfelde temperature yesterday

Maximum temperature yesterday: 54 °F (at 12:00 PM)
Minimum temperature yesterday: 50 °F (at 11:00 PM)
Average temperature yesterday: 52 °F

Past Weeks' High & Low Weather Summary

 TemperatureHumidityPressure
High69 °F (Oct 19, 3:00 PM)100% (Oct 17, 3:00 AM)30.28 "Hg (Oct 17, 3:00 AM)
Low46 °F (Oct 24, 5:00 PM)66% (Oct 15, 4:00 PM)29.44 "Hg (Oct 21, 10:00 PM)
Average56 °F92%29.90 "Hg
* Reported Oct 9 5:00 PM — Oct 24 5:00 PM, Ludwigsfelde, Weather by CustomWeather, © 2014

Note: Actual official high and low records may vary slightly from our data, if they occured in-between our weather recording intervals... More about our weather records

Advertising

Ludwigsfelde weather history for previous 24 hours

 ConditionsComfort  
Time TempWeatherWind HumidityBarometerVisibility
5:00 PM
Oct 24
46 °FFog.2 mph93%30.23 "Hg3 mi
4:00 PM47 °FFog.5 mph91%30.23 "Hg2 mi
3:00 PM48 °FFog.3 mph91%30.24 "Hg2 mi
2:00 PM49 °FFog.3 mph90%30.26 "Hg3 mi
1:00 PM49 °FFog.5 mph90%30.27 "Hg3 mi
12:00 PM48 °FFog.3 mph94%30.28 "Hg3 mi
11:00 AM47 °FFog.3 mph94%30.28 "Hg2 mi
10:00 AM47 °FFog.3 mph94%30.26 "Hg2 mi
9:00 AM47 °FFog.5 mph95%30.27 "Hg3 mi
8:00 AM46 °FFog.5 mph96%30.26 "Hg3 mi
7:00 AM47 °FLow clouds.5 mph96%30.25 "Hg5 mi
6:00 AM47 °FLow clouds.3 mph95%30.25 "Hg5 mi
5:00 AM47 °FLow clouds.5 mph94%30.24 "Hg6 mi
4:00 AM48 °FLow clouds.3 mph95%30.25 "Hg9 mi
3:00 AM48 °FOvercast.3 mph95%30.25 "Hg9 mi
2:00 AM49 °FOvercast.2 mph94%30.25 "Hg9 mi
1:00 AM49 °FOvercast.3 mph94%30.25 "Hg9 mi
12:00 AM50 °FOvercast.2 mph93%30.25 "Hg9 mi
11:00 PM
Oct 23
50 °FOvercast.2 mph93%30.25 "Hg9 mi
10:00 PM50 °FOvercast.3 mph95%30.24 "Hg9 mi
9:00 PM50 °FOvercast.1 mph97%30.22 "Hg5 mi
8:00 PM51 °FOvercast.2 mph96%30.22 "Hg6 mi
7:00 PM51 °FFog.1 mph96%30.21 "Hg4 mi
6:00 PM51 °FFog.1 mph95%30.20 "Hg4 mi
Weather by CustomWeather, © 2014

See weather overviewHow to use our weather pages